Regional Weather Roundup
Issued by NWS

Home | Current Version | Previous Version | Graphics & Text | Print | Product List | Glossary On
Versions: 1 2 3 4 5 6 7 8 9 10 11 12 13 14 15 16 17 18 19 20 21 22 23 24 25 26 27 28 29 30 31 32 33 34 35 36 37 38 39 40 41 42 43 44 45 46 47 48 49 50
000
ASUS43 KTOP 310659
RWRKS

WEATHER ROUNDUP FOR KANSAS
NATIONAL WEATHER SERVICE GOODLAND KS
100 AM CST SAT JAN 31 2015

NOTE:  "FAIR" INDICATES FEW OR NO CLOUDS BELOW 12,000 FEET WITH NO
SIGNIFICANT WEATHER AND/OR OBSTRUCTIONS TO VISIBILITY.

KSZ001>006-013>018-027>032-041>047-310800-
NORTHWEST KANSAS

CITY           SKY/WX    TMP DP  RH WIND       PRES   REMARKS
GOODLAND       CLOUDY    34  32  92 S16       30.05F WCI  24
HAYS           CLOUDY    34  27  75 S10       30.21F WCI  26
HILL CITY      FLURRIES  34  33  96 S7        30.17F
RUSSELL        LGT RAIN  35  34  96 SE9       30.21F FOG
$$

KSZ061>065-074>080-084>089-310800-
SOUTHWEST KANSAS

CITY           SKY/WX    TMP DP  RH WIND       PRES   REMARKS
DODGE CITY     CLOUDY    33  30  88 S16       30.17F WCI  23
ELKHART          N/A     34  28  79 S14         N/A  WCI  25
GARDEN CITY    MIX PCPN  32  31  96 S15       30.12F WCI  22
LIBERAL        CLOUDY    36  30  80 S12       30.19S WCI  27
$$

KSZ066>073-081>083-090>101-310800-
SOUTHEAST KANSAS

CITY           SKY/WX    TMP DP  RH WIND       PRES   REMARKS
CHANUTE        LGT RAIN  37  31  78 S6        30.33F
COFFEYVILLE    LGT RAIN  37  32  82 NE10      30.31F WCI  30
HUTCHINSON     CLOUDY    38  30  73 S7        30.25F
MEDICINE LODGE   N/A     36  31  82 CALM      30.24F
NEWTON         CLOUDY    36  27  69 SE9       30.25F
PARSONS        LGT RAIN  37  34  89 E3        30.33F
WICHITA INTL   CLOUDY    39  24  55 S7        30.26F
WICHITA JABRA  CLOUDY    37  27  67 S7        30.26F
WINFIELD       CLOUDY    41  22  46 SE6       30.28F
$$

KSZ007>012-019>026-033>040-048>060-102>105-310800-
NORTHEAST KANSAS

CITY           SKY/WX    TMP DP  RH WIND       PRES   REMARKS
CONCORDIA      LGT RAIN  34  34 100 SE6       30.26F FOG
EMPORIA        LGT RAIN  35  33  92 SE8       30.28F
LAWRENCE       LGT RAIN  34  27  75 CALM      30.33F
MANHATTAN      LGT RAIN  35  35 100 CALM      30.29F FOG
OLATHE IND     CLOUDY    34  24  67 S3        30.32F
OLATHE EXE     CLOUDY    34  24  67 S3        30.32F
SALINA         LGT RAIN  37  33  85 CALM      30.28S
TOPEKA BILLARD LGT RAIN  37  30  75 S6        30.32F
TOPEKA FORBES  LGT RAIN  37  30  75 S7        30.30F
$$


USA.gov is the U.S. government's official web portal to all federal, state and local government web resources and services.